Home   Weather   48°42'N, 9°38'E   Past weeks
Flag for Germany

Past Weather in 48°42'N, 9°38'E, Germany — Yesterday and Last 2 Weeks

Now
50 °F

Light fog.


Feels Like: 50 °F
Forecast: 63 / 52 °F
Wind: 2 mph from North

Location: Stuttgart-Echterdingen

Current Time: Oct 20, 2019 at 8:16:28 am

Latest Report: Oct 20, 2019 at 7:50 am


Visibility: N/A

Pressure: 29.80 "Hg

Humidity: 100%

Dew Point: 50 °F

Location of 48°42'N, 9°38'ELocation

Past Weather in 48°42'N, 9°38'E — Graph

°F

48°42'N, 9°38'E Temperature Yesterday

Maximum temperature yesterday: 59 °F (at 1:20 pm)
Minimum temperature yesterday: 52 °F (at 2:20 am)
Average temperature yesterday: 54 °F

High & Low Weather Summary for the Past Weeks

 TemperatureHumidityPressure
High79 °F (Oct 13, 3:20 pm)100% (Oct 6, 1:20 am)30.18 "Hg (Oct 6, 1:20 am)
Low41 °F (Oct 11, 6:20 am)39% (Oct 13, 4:20 pm)29.71 "Hg (Oct 15, 1:50 pm)
Average55 °F82%29.96 "Hg
* Reported Oct 5 7:20 am — Oct 20 7:20 am, 48°42'N, 9°38'E. Weather by CustomWeather, © 2019

Note: Actual official high and low records may vary slightly from our data, if they occured in-between our weather recording intervals... More about our weather records

Advertising

48°42'N, 9°38'E Weather History for the Previous 24 Hours

Scroll right to see more
 ConditionsComfort  
Time TempWeatherWind HumidityBarometerVisibility
7:20 am
Sun, Oct 20
50 °FLight fog.1 mph100%29.80 "HgN/A
6:50 am50 °FClear.2 mph100%29.80 "Hg10 mi
6:20 am52 °FClear.6 mph94%29.80 "Hg10 mi
5:50 am50 °FClear.5 mph100%29.80 "Hg10 mi
5:20 am50 °FClear.2 mph100%29.77 "Hg10 mi
4:50 am50 °FClear.1 mph100%29.77 "Hg10 mi
4:20 am52 °FClear.2 mph94%29.77 "Hg10 mi
3:50 am52 °FClear.2 mph100%29.80 "Hg10 mi
3:20 am52 °FClear.3 mph94%29.80 "Hg10 mi
2:50 am52 °FClear.3 mph100%29.80 "Hg10 mi
2:20 am54 °FClear.2 mph94%29.80 "Hg10 mi
1:50 am54 °FPassing clouds.5 mph94%29.80 "HgN/A
1:20 am54 °FLight rain. Passing clouds.3 mph94%29.83 "HgN/A
12:50 am54 °FClear.2 mph94%29.83 "Hg10 mi
12:20 am54 °FLight rain. Clear.2 mph94%29.83 "HgN/A
11:50 pm
Sat, Oct 19
54 °FLight rain. Clear.2 mph100%29.83 "HgN/A
11:20 pm54 °FClear.1 mph100%29.83 "Hg10 mi
10:20 pm54 °FLight rain. Passing clouds.No wind100%29.86 "HgN/A
9:50 pm54 °FPassing clouds.1 mph94%29.83 "HgN/A
9:20 pm54 °FLight rain. Clear.1 mph100%29.83 "HgN/A
8:50 pm54 °FLight rain. Clear.1 mph100%29.83 "HgN/A
8:20 pm55 °FLight rain. Passing clouds.1 mph88%29.83 "HgN/A
7:50 pm55 °FPassing clouds.1 mph88%29.83 "HgN/A
7:20 pm54 °FClear.2 mph100%29.83 "Hg10 mi
6:50 pm54 °FPassing clouds.3 mph100%29.80 "HgN/A
6:20 pm55 °FPassing clouds.2 mph88%29.80 "HgN/A
5:20 pm55 °FLight rain. Passing clouds.5 mph94%29.83 "HgN/A
4:50 pm57 °FLight rain. Scattered clouds.6 mph88%29.80 "HgN/A
4:20 pm57 °FLight rain. Passing clouds.3 mph88%29.80 "HgN/A
3:50 pm57 °FLight rain. Passing clouds.6 mph88%29.83 "HgN/A
3:20 pm59 °FLight rain. Passing clouds.7 mph77%29.83 "HgN/A
2:50 pm57 °FPassing clouds.7 mph82%29.83 "HgN/A
2:20 pm57 °FLight rain. Passing clouds.7 mph82%29.83 "HgN/A
1:50 pm57 °FLight rain. Passing clouds.7 mph82%29.83 "HgN/A
1:20 pm59 °FPassing clouds.8 mph82%29.83 "HgN/A
12:50 pm57 °FLight rain. Passing clouds.9 mph82%29.86 "HgN/A
12:20 pm55 °FLight rain. Clear.8 mph88%29.86 "HgN/A
11:50 am54 °FLight rain. Scattered clouds.9 mph88%29.86 "HgN/A
11:20 am54 °FLight rain. Scattered clouds.3 mph88%29.89 "HgN/A
10:50 am54 °FLight rain. Scattered clouds.5 mph88%29.86 "HgN/A
10:20 am55 °FLight rain. Scattered clouds.5 mph82%29.86 "HgN/A
9:50 am54 °FLight rain. Scattered clouds.6 mph88%29.86 "HgN/A
9:20 am54 °FPassing clouds.8 mph88%29.86 "HgN/A
8:50 am52 °FLight rain. Scattered clouds.5 mph100%29.89 "HgN/A
8:20 am52 °FLight rain. Scattered clouds.6 mph100%29.86 "HgN/A
Weather by CustomWeather, © 2019

See weather overview